[Date Prev][Date Next][Thread Prev][Thread Next] - [Date Index][Thread Index][Author Index]

2 Line ISS Keps 1-6



ISS
1 25544U 98067A   06006.06972222  .00014858  00000-0  10687-3 0   983
2 25544 051.6444 300.9918 0011042 121.5779 063.1360 15.73801966407619
----
Via the sarex mailing list at AMSAT.ORG courtesy of AMSAT-NA.
To unsubscribe, send "unsubscribe sarex" to Majordomo@amsat.org



AMSAT Top AMSAT Home